Regional Weather Roundup
Issued by NWS Wakefield, VA

Home | Current Version | Previous Version | Text Only | Print | Product List | Glossary On
Versions: 1 2 3 4 5 6 7 8 9 10 11 12 13 14 15 16 17 18 19 20 21 22 23 24 25 26 27
000
ASUS41 KAKQ 231616
RWRAKQ

REGIONAL WEATHER ROUNDUP
NATIONAL WEATHER SERVICE WAKEFIELD VA
1100 AM EST FRI FEB 23 2018

Note: "fair" indicates few or no clouds below 12,000 feet with no
significant weather and/or obstructions to visibility. * = Denotes
station may not report precipitation (e.g., rain,snow,etc.),
thunder or fog.

VAZ042-051-052>054-056-231700-
NORTHERN VIRGINIA

CITY           SKY/WX    TMP DP  RH WIND       PRES   REMARKS
WASH NATIONAL  CLOUDY    43  40  89 E7        30.56F
DULLES         CLOUDY    41  40  96 SE7       30.54F FOG
FORT BELVOIR   CLOUDY    42  39  89 CALM      30.55F
QUANTICO       CLOUDY    44  42  93 CALM      30.56F
FREDERICKSBRG* CLOUDY    43  43 100 CALM      30.54F
STAFFORD*      CLOUDY    43  43 100 CALM      30.59S FOG
WARRENTON      CLOUDY    43  39  86 SE3       30.53F FOG
CULPEPER*      CLOUDY    43  40  89 CALM      30.55S FOG
MANASSAS*      LGT RAIN  42  41  96 E5        30.55F FOG
LEESBURG*      CLOUDY    37  37 100 SE8       30.54F FOG
WINCHESTER     CLOUDY    41  37  87 SE7       30.50F
FRONT ROYAL*   CLOUDY    45  41  87 CALM      30.48F
LURAY*         CLOUDY    43  43 100 CALM      30.47F FOG
$$

VAZ048-049-060>072-079>083-231700-
CENTRAL AND SOUTH CENTRAL VIRGINIA

CITY           SKY/WX    TMP DP  RH WIND       PRES   REMARKS
RICHMOND       CLOUDY    45  43  93 E3        30.52F
CHESTERFIELD*  CLOUDY    44  42  93 E5        30.53F
PETERSBURG*    CLOUDY    44  42  90 CALM      30.54F FOG
HANOVER        CLOUDY    44  42  93 E5        30.54F
TAPPAHANNOCK*  CLOUDY    45  44  96 N5        30.54F
QUINTON*       CLOUDY    44  44 100 CALM      30.53F FOG
CHARLOTTSVILLE CLOUDY    44  42  93 CALM      30.51F FOG
GORDONSVILLE*  CLOUDY    42  42 100 CALM      30.52F FOG
ORANGE*        CLOUDY    41  41 100 CALM      30.53F FOG
LOUISA*        CLOUDY    43  41  95 E3        30.57S FOG
BUMPASS*       NOT AVBL
FARMVILLE*     CLOUDY   N/A N/A N/A CALM      30.51F
CREWE*         CLOUDY    44  44 100 CALM      30.52F
FORT PICKETT*  CLOUDY    44  44 100 NE3       30.52F
CHASE CITY*    CLOUDY    47  47 100 CALM      30.51F
CLARKSVILLE*   CLOUDY    46  46 100 N5        30.51S
SOUTH HILL*    CLOUDY    46  46 100 N3        30.57S
LAWRENCEVILLE* CLOUDY    46  45  97 CALM      30.51F
EMPORIA*       CLOUDY    45  45 100 N5        30.54S
$$

VAZ088>098-231700-
SOUTHEAST VIRGINIA

CITY           SKY/WX    TMP DP  RH WIND       PRES   REMARKS
NORFOLK        FOG       47  46  97 N10       30.51F VSB 1
VIRGINIA BEACH FOG       48  47  96 N9        30.50F VSB 1/4
NORFOLK NAVAL  CLOUDY    48  46  93 N8        30.52  FOG
WEST POINT*    CLOUDY    46  44  93 CALM      30.55F
SALUDA*        CLOUDY    44  44 100 CALM      30.53F
NEWPORT NEWS   CLOUDY    48  46  93 N5        30.52S FOG
LANGLEY AFB    CLOUDY    47  47 100 N8        30.52S FOG
FORT EUSTIS    CLOUDY    48  46  94 N6        30.50S FOG
WILLIAMSBURG*  CLOUDY    52  48  87 CALM      30.53F
HR EXEC AP*    CLOUDY    50  46  87 VRB3      30.52F
FRANKLIN*      CLOUDY    48  47  95 NE5       30.53F
US460-WAKEFLD  CLOUDY    47  45  93 VRB3      30.52F FOG
$$

VAZ020-022-025-037-045-231700-
WEST CENTRAL AND SOUTHWEST VIRGINIA

CITY           SKY/WX    TMP DP  RH WIND       PRES   REMARKS
STAUNTON*      CLOUDY    45  42  89 S5        30.49F
WAYNESBORO*    CLOUDY    42  42  99 SE6       30.47S
HOT SPRINGS VA CLOUDY    52  52 100 SW6       30.44S
LYNCHBURG      CLOUDY    45  43  93 NE3       30.50F
DANVILLE       CLOUDY    48  48 100 NE6       30.51S FOG
SOUTH BOSTON*  CLOUDY    48  47  95 NE3       30.51F
MARTINSVILLE   CLOUDY    47  45  93 NE5       30.52F FOG
ROANOKE        CLOUDY    46  44  93 E9        30.51F
BLACKSBURG     CLOUDY    47  47 100 E3        30.48F FOG
DUBLIN*        FOG       50  50 100 NE5       30.46F VSB 1
MARION*        FAIR      71  53  52 CALM      30.44S
HILLSVILLE*    CLOUDY    55  54  96 S6        30.44F
RICHLANDS*     PTSUNNY   69  56  62 SW6       30.42R
WISE*          FAIR      70  57  64 W14       30.41S
ABINGDON*      FAIR      72  58  61 SW7       30.41S
$$

MDZ021>025-VAZ099-100-231700-
SOUTHERN MARYLAND AND THE DELMARVA PENINSULA

CITY           SKY/WX    TMP DP  RH WIND       PRES   REMARKS
PATUXENT RIVER CLOUDY    43  43 100 N5        30.53F FOG
BAY BRIDGE APT DRIZZLE   41  41 100 CALM      30.56F FOG
LEONARDTOWN    CLOUDY    43  41  93 CALM      30.55F
DOVER          CLOUDY    43  41  93 NE8       30.54F FOG
GEORGETOWN     CLOUDY    44  42  93 E9        30.53F FOG
EASTON         CLOUDY    45  41  87 E5        30.58S FOG
CAMBRIDGE      CLOUDY    43  43 100 VRB5      30.53F FOG
SALISBURY      CLOUDY    45  45 100 NE7       30.52F FOG
OCEAN CITY     LGT RAIN  44  44 100 N10       30.53F FOG
WALLOPS ISLAND CLOUDY    49  48  97 N8        30.52F FOG
ACCOMACK*      CLOUDY    48  48  98 NE3       30.51F FOG
$$

NCZ012>017-030>032-231700-
NORTH CENTRAL AND EASTERN NORTH CAROLINA

CITY           SKY/WX    TMP DP  RH WIND       PRES   REMARKS
ROANOKE RAPIDS CLOUDY    46  46 100 CALM      30.51F
RALEIGH        CLOUDY    54  51  90 E5        30.49F
ELIZABETH CITY CLOUDY    52  51  97 NW6       30.50F
AHOSKIE*       CLOUDY    48  47  99 N3        30.52S
EDENTON*       CLOUDY    55  51  86 NE3       30.51F
CURRITUCK*     CLOUDY    47  47  98 NW6       30.51S FOG
KILL DEVIL HLS CLOUDY   N/A N/A N/A CALM      30.48F
MANTEO         CLOUDY    56  51  84 NE5       30.49F
CAPE HATTERAS  CLOUDY    59  56  89 VRB3      30.50R
TARBORO*       NOT AVBL
GOLDSBORO      PTSUNNY   62  55  76 E6        30.47F
WASHINGTON     CLOUDY    57  52  83 E3        30.50F
GREENVILLE     CLOUDY    55  52  88 CALM      30.50S
NEW BERN       PTSUNNY   64  58  80 CALM      30.50F
WILMINGTON     PTSUNNY   74  61  63 SE6       30.46F
$$

VAZ048-231700-
ELSEWHERE

CITY           SKY/WX    TMP DP  RH WIND       PRES   REMARKS
HARRISBURG PA  CLOUDY    40  37  89 S9        30.54F FOG
BALTIMORE      DRZL/FOG  41  41 100 E6        30.54F VSB 1
ANNAPOLIS      CLOUDY    43  42  97 NE3       30.55F FOG
ANDREWS AFB    CLOUDY    41  40  94 E7        30.53F
PHILADELPHIA   CLOUDY    40  38  93 E8        30.57F
HENDERSON NC   CLOUDY    47  45  95 NE3       30.50F FOG
GREENSBORO     DRIZZLE   51  51 100 NE7       30.48S FOG
ROCKY MOUNT    CLOUDY    52  48  86 VRB5      30.50F
$$

VAZ100-231700-
MARINE

STATION/POSITION TIME  TEMP    WIND        PRES    WAVE   SWELL
                       AIR SEA DIR/SP/G            HT/PER HT/PER
                 (UTC) (F)     (DEG/KT/KT) (MB)    (FT/S) (FT/S)
BRANDYWINE LGT   1536   42      80/ 15/ 16 1034.5F
CAPE MAY NJ      1536   42 43   70/  8/ 13 1033.9F
LEWES DE         1536   42 43   80/ 14/ 16 1034.2F
15NM E FENWICK I 1550   44 43   20/ 12/ 14 1033.6F   7/ 8   7/ 8
OCEAN-CITY-INLET 1536   43 42   20/  7/ 11 1034.3F
WACHAPREAGUE VA  1536   48 51   30/  9/ 11 1033.2F
THOMAS POINT MD  1600   40 42   20/  5/  6   N/A
GOOSES REEF MD   1600   41 42   60/  4/  6 1033.6
COVE POINT MD    1536   41      30/  3/  4 1034.9F
SOLOMONS ISLAND  1536   42 43   60/  2/  3 1033.9F
BISHOPS HEAD MD  1536   44 47   40/  5/  7 1034.4F
PINEY POINT MD   1548          110/  4/  5   N/A
POTOMAC MD       1550   42     170/  6/  8 1033.5F
CAMBRIDGE MD     1536   43 47              1035.1F
LEWISETTA VA     1536   43 47   50/  4/  5 1034.2F
RAPPAHANNOCK LGT 1536          360/ 10/ 11 1034.0F
YORK RVR RNG VA  1536           10/  7/  8 1034.1F
YORKTOWN VA      1536      49   20/  6/  7 1033.3F
DOMINION TERM VA 1536   48      40/  2/  4 1033.7F
KIPTOPEKE VA     1536      47  350/  5/  7   N/A
CAPE HENRY VA    1536          330/  9/ 11   N/A
WILLOUBY STN VA  1536          360/  7/  8 1033.4F
S CRANEY ISL VA  1536           30/  7/  8 1033.2F
CAPE HENRY BUOY  1600      44                N/A     4/ 8   2/14
CAPE CHARLES BUO 1551      44                N/A     4/ 8   2/13
64NM E OF VA BCH 1550   51 51  320/  4/  4 1032.2F   6/ 8   7/ 8
DUCK PIER NC     1536      47  350/ 11/ 12 1032.3S
44100 DUCK FRF   1545      47                N/A     6/ 8   2/14
44056 DUCK FRF   1600      48                N/A     5/ 8   2/14
OREGON INLET NC  1536   53 53   10/  5/  8 1032.5F
HATTERAS NC      1536   54 60   10/  7/ 10 1032.4S
DIAMOND SHLS NC  1600   62      10/  6/ 10 1032.9
CAPE LOOKOUT NC  1600           40/ 10/ 11 1032.9F
$$




USA.gov is the U.S. government's official web portal to all federal, state and local government web resources and services.